QPF
0.01 0.02 0.02 0.02 0.01 0.01 0.01 0.01 0.03 0.05 0.05 0.07 0.10 0.12 0.13 0.10 0.09 0.07 0.02 0.03 0.03 0.03 0.02 0.01 0.01 0.01 0.01 0.02 0.02 0.02 0.01 0.01 0.01 0.01 0.01 0.01 0.01 0.01 0.01 0.00 0.01 0.00 0.00
0.01 0.02 0.03 0.03 0.02 0.02 0.02 0.01 0.02 0.03 0.04 0.05 0.07 0.09 0.10 0.08 0.05 0.04 0.02 0.01 0.02 0.02 0.02 0.01 0.01 0.02 0.01 0.02 0.02 0.02 0.01 0.02 0.02 0.02 0.01 0.01 0.01 0.01 0.01 0.01 0.01 0.01 0.00
0.01 0.01 0.02 0.02 0.02 0.02 0.01 0.01 0.02 0.03 0.03 0.04 0.05 0.07 0.08 0.05 0.03 0.03 0.01 0.01 0.01 0.02 0.02 0.02 0.02 0.02 0.01 0.01 0.02 0.02 0.02 0.02 0.02 0.01 0.01 0.01 0.01 0.01 0.01 0.01 0.01 0.01 0.00
0.01 0.01 0.01 0.01 0.01 0.01 0.02 0.02 0.04 0.04 0.03 0.03 0.04 0.06 0.05 0.03 0.02 0.03 0.02 0.02 0.01 0.01 0.02 0.03 0.03 0.02 0.02 0.02 0.02 0.02 0.03 0.02 0.02 0.01 0.01 0.01 0.01 0.01 0.01 0.02 0.02 0.01 0.01
0.01 0.01 0.01 0.01 0.01 0.02 0.03 0.02 0.04 0.03 0.04 0.03 0.03 0.05 0.05 0.04 0.04 0.03 0.03 0.03 0.02 0.01 0.02 0.02 0.03 0.03 0.04 0.05 0.05 0.03 0.03 0.03 0.02 0.02 0.02 0.02 0.02 0.02 0.01 0.02 0.02 0.02 0.01
0.01 0.01 0.01 0.01 0.02 0.02 0.02 0.02 0.03 0.02 0.03 0.03 0.04 0.06 0.05 0.04 0.05 0.05 0.03 0.03 0.03 0.03 0.03 0.02 0.01 0.02 0.03 0.05 0.06 0.05 0.04 0.04 0.03 0.03 0.03 0.02 0.03 0.02 0.02 0.02 0.02 0.03 0.02
0.02 0.02 0.02 0.02 0.01 0.01 0.01 0.02 0.02 0.02 0.01 0.02 0.04 0.05 0.06 0.07 0.07 0.07 0.06 0.04 0.04 0.04 0.03 0.02 0.01 0.00 0.02 0.03 0.02 0.03 0.04 0.04 0.04 0.04 0.03 0.03 0.03 0.03 0.02 0.02 0.02 0.02 0.02
0.03 0.03 0.03 0.02 0.02 0.01 0.01 0.01 0.01 0.02 0.01 0.01 0.02 0.02 0.04 0.06 0.06 0.05 0.06 0.05 0.05 0.04 0.03 0.02 0.01 0.01 0.01 0.01 0.00 0.01 0.02 0.03 0.05 0.05 0.04 0.03 0.03 0.03 0.03 0.03 0.03 0.02 0.02
0.05 0.05 0.03 0.02 0.02 0.02 0.01 0.01 0.00 0.01 0.01 0.01 0.01 0.01 0.01 0.01 0.02 0.03 0.03 0.04 0.06 0.05 0.03 0.02 0.01 0.01 0.01 0.00 0.00 0.00 0.01 0.02 0.03 0.04 0.03 0.02 0.02 0.02 0.02 0.03 0.03 0.02 0.02
0.07 0.06 0.04 0.03 0.03 0.03 0.01 0.01 0.00 0.00 0.00 0.00 0.01 0.01 0.01 0.01 0.01 0.01 0.02 0.03 0.03 0.03 0.02 0.01 0.01 0.01 0.00 0.01 0.00 0.00 0.01 0.01 0.02 0.02 0.02 0.03 0.03 0.02 0.01 0.02 0.02 0.02 0.02
0.08 0.07 0.05 0.03 0.02 0.02 0.02 0.01 0.01 0.00 0.00 0.00 0.01 0.01 0.01 0.01 0.01 0.00 0.01 0.01 0.02 0.02 0.01 0.01 0.01 0.01 0.00 0.00 0.00 0.00 0.01 0.00 0.00 0.01 0.02 0.02 0.02 0.01 0.01 0.01 0.02 0.02 0.03
0.10 0.08 0.06 0.04 0.02 0.01 0.01 0.01 0.01 0.01 0.00 0.00 0.01 0.00 0.01 0.01 0.01 0.00 0.00 0.00 0.01 0.01 0.01 0.01 0.00 0.00 0.00 0.00 0.00 0.00 0.00 0.00 0.00 0.00 0.00 0.00 0.01 0.01 0.01 0.02 0.02 0.02 0.02
0.11 0.08 0.06 0.06 0.03 0.02 0.02 0.03 0.02 0.01 0.01 0.00 0.00 0.01 0.01 0.01 0.01 0.00 0.00 0.00 0.00 0.00 0.00 0.00 0.00 0.00 0.00 0.00 0.00 0.00 0.00 0.00 0.00 0.00 0.00 0.00 0.00 0.00 0.01 0.01 0.01 0.01 0.01
0.07 0.06 0.06 0.05 0.04 0.03 0.03 0.02 0.01 0.01 0.01 0.00 0.00 0.00 0.00 0.00 0.00 0.01 0.00 0.00 0.00 0.00 0.00 0.00 0.00 0.00 0.00 0.00 0.00 0.00 0.00 0.00 0.00 0.00 0.00 0.00 0.00 0.00 0.00 0.00 0.01 0.01 0.01
0.08 0.07 0.05 0.03 0.02 0.02 0.02 0.01 0.01 0.01 0.01 0.01 0.01 0.01 0.01 0.01 0.01 0.01 0.00 0.00 0.00 0.00 0.00 0.00 0.00 0.00 0.00 0.00 0.00 0.00 0.00 0.00 0.00 0.00 0.00 0.00 0.00 0.00 0.00 0.00 0.00 0.00 0.00
0.10 0.08 0.06 0.04 0.02 0.02 0.02 0.01 0.01 0.00 0.01 0.01 0.01 0.01 0.01 0.01 0.01 0.00 0.00 0.00 0.00 0.00 0.00 0.00 0.00 0.00 0.00 0.00 0.00 0.00 0.00 0.00 0.00 0.00 0.00 0.00 0.00 0.00 0.00 0.00 0.00 0.00 0.00
0.11 0.09 0.07 0.05 0.03 0.02 0.02 0.01 0.01 0.01 0.01 0.01 0.01 0.01 0.01 0.01 0.00 0.00 0.00 0.00 0.00 0.00 0.00 0.00 0.00 0.00 0.00 0.00 0.00 0.00 0.00 0.00 0.00 0.00 0.00 0.00 0.00 0.00 0.00 0.00 0.00 0.00 0.00
0.10 0.10 0.09 0.07 0.05 0.04 0.03 0.02 0.01 0.01 0.01 0.01 0.01 0.01 0.01 0.01 0.00 0.00 0.00 0.00 0.00 0.00 0.00 0.00 0.00 0.00 0.00 0.00 0.00 0.00 0.00 0.00 0.00 0.00 0.00 0.00 0.00 0.00 0.00 0.00 0.00 0.00 0.00
0.08 0.10 0.10 0.09 0.07 0.05 0.05 0.04 0.02 0.01 0.01 0.01 0.01 0.01 0.01 0.01 0.00 0.00 0.00 0.00 0.00 0.00 0.00 0.00 0.00 0.00 0.00 0.00 0.00 0.00 0.00 0.00 0.00 0.00 0.00 0.00 0.00 0.00 0.00 0.00 0.00 0.00 0.00
0.07 0.09 0.08 0.07 0.05 0.04 0.04 0.02 0.02 0.02 0.02 0.02 0.02 0.01 0.01 0.01 0.01 0.00 0.00 0.00 0.00 0.00 0.00 0.00 0.00 0.00 0.00 0.00 0.00 0.00 0.00 0.00 0.00 0.00 0.00 0.00 0.00 0.01 0.00 0.00 0.00 0.00 0.00
0.06 0.07 0.06 0.05 0.04 0.04 0.02 0.01 0.01 0.01 0.01 0.01 0.01 0.01 0.00 0.01 0.01 0.01 0.00 0.00 0.00 0.00 0.00 0.00 0.00 0.00 0.00 0.00 0.00 0.00 0.00 0.00 0.00 0.00 0.01 0.01 0.01 0.00 0.00 0.00 0.00 0.00 0.00
0.04 0.05 0.04 0.04 0.03 0.03 0.03 0.02 0.02 0.02 0.02 0.01 0.01 0.01 0.01 0.01 0.01 0.00 0.01 0.01 0.00 0.01 0.00 0.00 0.00 0.00 0.00 0.00 0.00 0.00 0.00 0.00 0.00 0.00 0.00 0.00 0.00 0.00 0.00 0.00 0.00 0.00 0.00
0.04 0.03 0.02 0.02 0.02 0.02 0.03 0.02 0.02 0.02 0.02 0.01 0.01 0.01 0.02 0.02 0.01 0.02 0.02 0.01 0.01 0.01 0.01 0.01 0.00 0.00 0.01 0.01 0.01 0.00 0.00 0.00 0.00 0.00 0.00 0.00 0.00 0.00 0.00 0.00 0.00 0.00 0.00
0.04 0.04 0.03 0.02 0.02 0.02 0.03 0.03 0.02 0.01 0.01 0.01 0.00 0.01 0.01 0.01 0.02 0.03 0.03 0.02 0.01 0.01 0.01 0.01 0.01 0.01 0.01 0.01 0.01 0.01 0.00 0.00 0.00 0.00 0.00 0.00 0.00 0.00 0.00 0.00 0.00 0.00 0.00
0.05 0.05 0.05 0.04 0.03 0.03 0.04 0.05 0.04 0.02 0.01 0.01 0.01 0.01 0.02 0.02 0.03 0.04 0.03 0.02 0.01 0.01 0.02 0.02 0.02 0.02 0.03 0.02 0.02 0.01 0.00 0.00 0.00 0.00 0.00 0.00 0.00 0.00 0.00 0.00 0.00 0.00 0.00
0.11 0.11 0.10 0.09 0.08 0.08 0.09 0.07 0.05 0.04 0.03 0.03 0.02 0.02 0.02 0.03 0.03 0.03 0.03 0.02 0.03 0.04 0.05 0.04 0.03 0.02 0.01 0.01 0.01 0.01 0.01 0.01 0.01 0.00 0.00 0.01 0.00 0.01 0.00 0.00 0.00 0.00 0.00
MSLP
1016.06 1016.24 1016.34 1016.39 1016.41 1016.45 1016.52 1016.63 1016.79 1016.98 1017.19 1017.41 1017.61 1017.81 1017.99 1018.18 1018.36 1018.56 1018.75 1018.94 1019.13 1019.29 1019.44 1019.56 1019.66 1019.74 1019.82 1019.88 1019.95 1020.01 1020.06 1020.13 1020.20 1020.28 1020.38 1020.49 1020.63 1020.77 1020.91 1021.03 1021.13 1021.19 1021.23
1015.82 1016.06 1016.22 1016.32 1016.40 1016.47 1016.57 1016.69 1016.86 1017.06 1017.29 1017.52 1017.76 1017.98 1018.18 1018.37 1018.53 1018.69 1018.83 1018.96 1019.10 1019.23 1019.36 1019.50 1019.63 1019.76 1019.87 1019.97 1020.05 1020.11 1020.15 1020.19 1020.22 1020.27 1020.34 1020.44 1020.57 1020.72 1020.87 1021.02 1021.13 1021.22 1021.29
1015.46 1015.75 1015.98 1016.17 1016.32 1016.46 1016.61 1016.77 1016.96 1017.17 1017.41 1017.67 1017.92 1018.15 1018.36 1018.54 1018.68 1018.78 1018.86 1018.93 1019.00 1019.09 1019.20 1019.33 1019.49 1019.66 1019.82 1019.96 1020.07 1020.14 1020.18 1020.19 1020.20 1020.22 1020.26 1020.34 1020.45 1020.59 1020.75 1020.90 1021.04 1021.16 1021.25
1015.01 1015.36 1015.68 1015.96 1016.21 1016.44 1016.65 1016.86 1017.08 1017.32 1017.57 1017.83 1018.09 1018.34 1018.54 1018.70 1018.81 1018.87 1018.88 1018.88 1018.88 1018.91 1018.98 1019.10 1019.26 1019.46 1019.65 1019.84 1019.98 1020.08 1020.13 1020.14 1020.13 1020.12 1020.14 1020.18 1020.27 1020.39 1020.53 1020.69 1020.84 1020.97 1021.09
1014.52 1014.93 1015.33 1015.72 1016.08 1016.40 1016.70 1016.96 1017.22 1017.47 1017.73 1018.00 1018.26 1018.51 1018.71 1018.86 1018.93 1018.95 1018.91 1018.84 1018.77 1018.74 1018.76 1018.85 1019.00 1019.20 1019.42 1019.63 1019.81 1019.94 1020.01 1020.03 1020.01 1019.99 1019.98 1020.00 1020.05 1020.14 1020.26 1020.39 1020.53 1020.67 1020.81
1014.04 1014.50 1014.99 1015.47 1015.94 1016.36 1016.73 1017.06 1017.35 1017.62 1017.89 1018.16 1018.42 1018.66 1018.86 1019.00 1019.06 1019.04 1018.96 1018.84 1018.72 1018.62 1018.58 1018.62 1018.74 1018.93 1019.15 1019.38 1019.58 1019.73 1019.82 1019.86 1019.86 1019.84 1019.82 1019.81 1019.83 1019.88 1019.96 1020.06 1020.18 1020.30 1020.43
1013.60 1014.10 1014.65 1015.23 1015.78 1016.29 1016.73 1017.11 1017.44 1017.73 1018.00 1018.27 1018.53 1018.77 1018.97 1019.12 1019.18 1019.16 1019.06 1018.90 1018.73 1018.58 1018.49 1018.47 1018.54 1018.68 1018.88 1019.09 1019.30 1019.47 1019.60 1019.67 1019.69 1019.68 1019.66 1019.64 1019.64 1019.65 1019.68 1019.74 1019.82 1019.91 1020.02
1013.22 1013.74 1014.34 1014.97 1015.60 1016.17 1016.68 1017.10 1017.45 1017.76 1018.04 1018.31 1018.58 1018.83 1019.05 1019.21 1019.30 1019.29 1019.19 1019.02 1018.83 1018.63 1018.48 1018.40 1018.40 1018.49 1018.63 1018.82 1019.01 1019.19 1019.33 1019.43 1019.49 1019.52 1019.52 1019.51 1019.49 1019.47 1019.47 1019.48 1019.50 1019.55 1019.63
1012.89 1013.41 1014.04 1014.71 1015.37 1015.99 1016.53 1016.99 1017.37 1017.69 1017.98 1018.27 1018.55 1018.82 1019.07 1019.26 1019.38 1019.40 1019.33 1019.17 1018.97 1018.74 1018.54 1018.40 1018.32 1018.33 1018.41 1018.54 1018.70 1018.87 1019.03 1019.16 1019.27 1019.34 1019.38 1019.39 1019.38 1019.36 1019.32 1019.29 1019.26 1019.26 1019.29
1012.60 1013.12 1013.74 1014.41 1015.09 1015.73 1016.29 1016.77 1017.17 1017.51 1017.83 1018.13 1018.44 1018.74 1019.02 1019.26 1019.42 1019.49 1019.45 1019.32 1019.11 1018.88 1018.64 1018.43 1018.28 1018.20 1018.20 1018.26 1018.38 1018.52 1018.69 1018.85 1019.00 1019.12 1019.22 1019.27 1019.29 1019.27 1019.22 1019.16 1019.09 1019.05 1019.03
1012.32 1012.83 1013.44 1014.10 1014.77 1015.40 1015.97 1016.46 1016.88 1017.25 1017.59 1017.92 1018.26 1018.59 1018.91 1019.19 1019.39 1019.50 1019.51 1019.41 1019.23 1018.98 1018.72 1018.46 1018.25 1018.09 1018.01 1017.99 1018.04 1018.15 1018.30 1018.48 1018.67 1018.85 1019.00 1019.10 1019.17 1019.17 1019.13 1019.05 1018.96 1018.87 1018.81
1012.04 1012.54 1013.13 1013.76 1014.41 1015.02 1015.59 1016.09 1016.52 1016.92 1017.29 1017.65 1018.02 1018.39 1018.74 1019.05 1019.30 1019.45 1019.49 1019.43 1019.27 1019.04 1018.77 1018.49 1018.22 1017.99 1017.83 1017.73 1017.72 1017.78 1017.90 1018.08 1018.29 1018.50 1018.70 1018.86 1018.97 1019.01 1018.99 1018.92 1018.81 1018.70 1018.61
1011.72 1012.22 1012.80 1013.41 1014.03 1014.63 1015.18 1015.69 1016.14 1016.56 1016.96 1017.36 1017.76 1018.15 1018.53 1018.86 1019.13 1019.31 1019.39 1019.37 1019.25 1019.04 1018.78 1018.49 1018.19 1017.91 1017.69 1017.52 1017.44 1017.44 1017.52 1017.67 1017.87 1018.10 1018.34 1018.53 1018.68 1018.76 1018.76 1018.70 1018.60 1018.47 1018.36
1011.34 1011.88 1012.46 1013.06 1013.66 1014.25 1014.80 1015.31 1015.78 1016.22 1016.65 1017.08 1017.49 1017.90 1018.29 1018.63 1018.91 1019.11 1019.22 1019.23 1019.15 1018.99 1018.76 1018.48 1018.18 1017.88 1017.61 1017.39 1017.24 1017.17 1017.19 1017.29 1017.47 1017.69 1017.92 1018.14 1018.30 1018.40 1018.43 1018.38 1018.29 1018.16 1018.05
1010.90 1011.49 1012.10 1012.71 1013.32 1013.90 1014.45 1014.97 1015.46 1015.93 1016.38 1016.82 1017.25 1017.66 1018.04 1018.38 1018.66 1018.86 1018.99 1019.04 1019.01 1018.90 1018.72 1018.48 1018.21 1017.91 1017.63 1017.37 1017.16 1017.02 1016.97 1017.01 1017.13 1017.30 1017.51 1017.70 1017.86 1017.97 1018.00 1017.96 1017.87 1017.75 1017.63
1010.40 1011.07 1011.73 1012.38 1013.00 1013.60 1014.16 1014.69 1015.19 1015.68 1016.14 1016.58 1017.01 1017.41 1017.77 1018.09 1018.36 1018.57 1018.72 1018.80 1018.82 1018.77 1018.66 1018.49 1018.27 1018.00 1017.72 1017.45 1017.20 1017.00 1016.88 1016.84 1016.88 1016.98 1017.13 1017.28 1017.41 1017.49 1017.51 1017.46 1017.37 1017.25 1017.13
1009.86 1010.62 1011.36 1012.06 1012.72 1013.34 1013.91 1014.46 1014.97 1015.46 1015.92 1016.36 1016.77 1017.15 1017.49 1017.78 1018.03 1018.23 1018.39 1018.51 1018.58 1018.60 1018.57 1018.48 1018.33 1018.12 1017.87 1017.59 1017.32 1017.08 1016.89 1016.77 1016.73 1016.75 1016.81 1016.90 1016.97 1017.00 1016.99 1016.92 1016.82 1016.68 1016.55
1009.34 1010.20 1011.01 1011.76 1012.46 1013.11 1013.70 1014.25 1014.76 1015.24 1015.70 1016.12 1016.50 1016.84 1017.15 1017.41 1017.63 1017.83 1018.00 1018.14 1018.26 1018.35 1018.40 1018.40 1018.33 1018.19 1017.99 1017.74 1017.46 1017.20 1016.96 1016.77 1016.65 1016.58 1016.57 1016.57 1016.57 1016.55 1016.49 1016.38 1016.25 1016.09 1015.93
1008.89 1009.82 1010.69 1011.50 1012.23 1012.89 1013.49 1014.03 1014.53 1015.00 1015.42 1015.82 1016.17 1016.47 1016.74 1016.97 1017.16 1017.34 1017.52 1017.68 1017.85 1018.00 1018.12 1018.20 1018.21 1018.14 1018.00 1017.80 1017.54 1017.27 1017.01 1016.78 1016.60 1016.46 1016.37 1016.30 1016.24 1016.15 1016.04 1015.88 1015.70 1015.50 1015.31
1008.58 1009.54 1010.45 1011.27 1012.02 1012.68 1013.26 1013.79 1014.26 1014.70 1015.09 1015.44 1015.75 1016.02 1016.25 1016.44 1016.61 1016.78 1016.94 1017.13 1017.32 1017.51 1017.69 1017.83 1017.92 1017.92 1017.85 1017.70 1017.49 1017.24 1016.98 1016.73 1016.52 1016.35 1016.20 1016.08 1015.96 1015.82 1015.65 1015.44 1015.21 1014.96 1014.72
1008.44 1009.39 1010.29 1011.10 1011.83 1012.46 1013.01 1013.50 1013.94 1014.33 1014.68 1015.00 1015.27 1015.50 1015.69 1015.85 1016.00 1016.14 1016.30 1016.48 1016.69 1016.90 1017.12 1017.31 1017.45 1017.52 1017.51 1017.42 1017.26 1017.05 1016.83 1016.60 1016.39 1016.20 1016.04 1015.89 1015.73 1015.54 1015.33 1015.07 1014.78 1014.48 1014.18
1008.49 1009.39 1010.23 1010.99 1011.66 1012.24 1012.74 1013.17 1013.56 1013.91 1014.23 1014.50 1014.75 1014.95 1015.11 1015.25 1015.38 1015.50 1015.64 1015.81 1016.00 1016.22 1016.45 1016.67 1016.84 1016.96 1017.01 1016.98 1016.88 1016.74 1016.56 1016.38 1016.20 1016.03 1015.87 1015.71 1015.54 1015.33 1015.08 1014.78 1014.44 1014.08 1013.72
1008.71 1009.51 1010.26 1010.93 1011.51 1012.01 1012.44 1012.82 1013.16 1013.47 1013.75 1014.01 1014.23 1014.42 1014.57 1014.69 1014.80 1014.90 1015.02 1015.17 1015.34 1015.55 1015.77 1015.99 1016.19 1016.34 1016.43 1016.46 1016.42 1016.34 1016.23 1016.11 1015.98 1015.85 1015.72 1015.57 1015.40 1015.17 1014.90 1014.57 1014.19 1013.77 1013.35
1009.04 1009.71 1010.33 1010.88 1011.36 1011.78 1012.13 1012.46 1012.75 1013.03 1013.30 1013.55 1013.77 1013.97 1014.12 1014.25 1014.34 1014.44 1014.53 1014.65 1014.80 1014.98 1015.18 1015.39 1015.59 1015.76 1015.88 1015.95 1015.98 1015.96 1015.92 1015.85 1015.78 1015.69 1015.60 1015.47 1015.30 1015.08 1014.79 1014.43 1014.01 1013.54 1013.06
1009.37 1009.90 1010.38 1010.82 1011.19 1011.52 1011.81 1012.09 1012.36 1012.64 1012.91 1013.17 1013.42 1013.64 1013.81 1013.95 1014.06 1014.14 1014.22 1014.32 1014.44 1014.59 1014.76 1014.95 1015.15 1015.32 1015.47 1015.58 1015.65 1015.68 1015.69 1015.67 1015.65 1015.60 1015.53 1015.42 1015.26 1015.03 1014.72 1014.34 1013.88 1013.36 1012.82
1009.62 1010.01 1010.37 1010.70 1010.98 1011.24 1011.48 1011.74 1012.01 1012.29 1012.60 1012.90 1013.19 1013.44 1013.66 1013.82 1013.94 1014.03 1014.11 1014.19 1014.29 1014.41 1014.56 1014.73 1014.91 1015.09 1015.24 1015.38 1015.48 1015.54 1015.59 1015.60 1015.60 1015.57 1015.51 1015.40 1015.24 1014.99 1014.67 1014.25 1013.75 1013.19 1012.59
Thickness
5754 5753 5752 5750 5749 5748 5747 5746 5745 5745 5744 5743 5742 5740 5739 5738 5736 5735 5734 5731 5730 5728 5727 5725 5723 5722 5720 5719 5717 5716 5715 5714 5713 5712 5711 5711 5710 5709 5709 5708 5706 5705 5704
5753 5751 5750 5749 5748 5748 5746 5746 5744 5744 5743 5742 5741 5739 5738 5736 5735 5733 5732 5730 5729 5727 5726 5724 5722 5721 5720 5718 5717 5715 5714 5713 5712 5711 5710 5710 5709 5708 5707 5706 5705 5704 5703
5752 5751 5749 5748 5748 5747 5746 5745 5744 5743 5742 5741 5740 5738 5737 5736 5734 5733 5731 5730 5728 5726 5725 5723 5722 5720 5719 5718 5716 5715 5714 5712 5711 5710 5709 5708 5708 5707 5706 5705 5704 5703 5702
5752 5750 5748 5747 5747 5746 5745 5744 5742 5740 5739 5738 5737 5737 5736 5735 5733 5732 5730 5729 5727 5726 5724 5723 5722 5720 5719 5717 5716 5715 5713 5712 5711 5710 5709 5708 5707 5706 5705 5704 5702 5701 5701
5751 5750 5748 5747 5746 5745 5744 5743 5741 5739 5736 5736 5736 5736 5735 5734 5733 5731 5730 5728 5727 5726 5724 5723 5721 5720 5718 5717 5716 5715 5713 5712 5711 5709 5708 5707 5706 5705 5704 5703 5701 5700 5700
5750 5749 5747 5745 5745 5743 5741 5741 5739 5738 5737 5736 5736 5734 5733 5733 5732 5731 5730 5728 5727 5725 5724 5723 5721 5720 5718 5717 5716 5715 5713 5712 5710 5709 5708 5707 5706 5705 5704 5702 5701 5700 5699
5749 5747 5746 5744 5743 5741 5740 5740 5738 5737 5735 5735 5731 5728 5729 5731 5731 5731 5730 5729 5727 5725 5724 5723 5721 5720 5719 5717 5716 5715 5713 5712 5710 5709 5708 5707 5706 5704 5703 5702 5701 5700 5699
5747 5746 5744 5743 5742 5740 5739 5738 5738 5735 5734 5734 5729 5722 5718 5720 5726 5731 5729 5728 5728 5726 5725 5723 5721 5720 5719 5717 5716 5715 5713 5712 5711 5709 5708 5707 5705 5704 5703 5702 5701 5700 5699
5745 5744 5743 5742 5741 5740 5738 5737 5737 5735 5731 5732 5732 5726 5716 5713 5718 5724 5727 5728 5728 5726 5726 5724 5722 5720 5719 5718 5716 5715 5713 5712 5711 5710 5708 5707 5705 5704 5702 5701 5700 5700 5699
5743 5743 5742 5742 5741 5740 5739 5738 5738 5736 5733 5729 5730 5731 5729 5726 5718 5716 5722 5726 5727 5726 5726 5726 5724 5722 5720 5718 5717 5715 5714 5712 5711 5710 5708 5707 5705 5703 5702 5701 5700 5699 5698
5741 5741 5741 5740 5740 5739 5739 5738 5737 5736 5734 5731 5729 5729 5728 5727 5725 5719 5715 5720 5723 5726 5727 5726 5725 5723 5721 5719 5718 5716 5715 5713 5711 5710 5708 5706 5705 5703 5702 5701 5700 5699 5698
5738 5739 5740 5739 5739 5738 5738 5738 5737 5735 5734 5733 5731 5731 5729 5726 5723 5721 5717 5716 5717 5722 5725 5726 5725 5724 5722 5720 5719 5717 5715 5713 5711 5710 5708 5706 5705 5703 5702 5701 5700 5699 5698
5736 5737 5738 5738 5737 5737 5738 5737 5735 5734 5734 5732 5732 5731 5731 5730 5729 5725 5720 5716 5715 5718 5722 5724 5725 5724 5723 5721 5719 5717 5715 5713 5711 5709 5707 5706 5704 5703 5701 5700 5699 5698 5697
5737 5737 5737 5737 5737 5736 5736 5735 5734 5733 5733 5732 5732 5731 5730 5730 5730 5728 5724 5718 5712 5712 5716 5719 5723 5723 5722 5721 5719 5717 5715 5713 5711 5709 5707 5705 5704 5702 5701 5699 5698 5696 5695
5737 5736 5736 5736 5736 5735 5735 5734 5732 5732 5731 5730 5730 5730 5729 5729 5729 5729 5727 5724 5716 5708 5708 5715 5719 5722 5722 5720 5719 5716 5714 5712 5710 5708 5706 5705 5703 5701 5700 5698 5697 5695 5693
5736 5735 5735 5735 5734 5734 5734 5732 5731 5731 5729 5728 5728 5728 5727 5727 5727 5727 5726 5724 5721 5715 5709 5714 5717 5720 5720 5719 5717 5715 5713 5711 5709 5707 5705 5704 5702 5700 5699 5697 5695 5693 5692
5736 5735 5735 5734 5733 5732 5732 5731 5730 5729 5727 5726 5726 5726 5725 5725 5724 5724 5723 5722 5719 5716 5710 5712 5715 5717 5717 5715 5714 5712 5710 5708 5707 5706 5704 5703 5701 5699 5698 5696 5694 5692 5690
5736 5736 5734 5733 5732 5731 5730 5729 5728 5727 5725 5724 5724 5723 5722 5722 5721 5720 5720 5719 5717 5716 5712 5709 5710 5712 5712 5712 5711 5709 5708 5706 5705 5704 5702 5701 5699 5698 5696 5694 5692 5690 5688
5736 5735 5733 5732 5731 5730 5729 5728 5727 5725 5724 5723 5722 5721 5721 5719 5717 5717 5716 5715 5715 5714 5712 5708 5706 5707 5707 5708 5706 5704 5704 5702 5701 5700 5699 5698 5696 5694 5693 5691 5689 5687 5685
5735 5733 5732 5731 5730 5729 5728 5726 5725 5723 5722 5722 5722 5721 5720 5718 5717 5715 5714 5712 5711 5709 5707 5704 5702 5701 5700 5701 5699 5696 5695 5695 5695 5696 5695 5694 5692 5690 5689 5687 5685 5683 5681
5734 5732 5730 5729 5729 5727 5727 5725 5723 5722 5720 5719 5719 5719 5719 5718 5717 5715 5713 5710 5708 5704 5701 5699 5696 5694 5693 5692 5691 5691 5688 5688 5688 5689 5688 5687 5686 5685 5683 5681 5679 5678 5676
5731 5730 5728 5727 5726 5727 5726 5724 5722 5720 5718 5716 5715 5716 5716 5716 5715 5714 5712 5710 5708 5703 5698 5694 5691 5689 5688 5688 5687 5685 5682 5679 5677 5682 5680 5679 5679 5677 5676 5674 5672 5670 5668
5729 5728 5727 5726 5724 5724 5723 5722 5720 5718 5715 5714 5713 5712 5713 5713 5711 5709 5708 5706 5705 5703 5700 5695 5690 5688 5686 5684 5681 5678 5675 5673 5672 5674 5671 5670 5670 5668 5669 5667 5665 5662 5660
5728 5726 5725 5723 5722 5721 5720 5719 5717 5714 5712 5712 5711 5710 5708 5708 5708 5705 5702 5699 5698 5697 5695 5693 5690 5688 5686 5683 5679 5675 5672 5670 5669 5666 5663 5660 5662 5660 5662 5659 5657 5654 5651
5726 5724 5723 5720 5718 5717 5717 5715 5713 5710 5708 5708 5708 5707 5705 5704 5703 5701 5697 5693 5691 5691 5691 5689 5687 5684 5681 5678 5674 5668 5663 5659 5657 5657 5654 5650 5651 5650 5650 5650 5648 5645 5642
5725 5722 5719 5718 5716 5714 5713 5711 5709 5706 5703 5702 5702 5702 5702 5700 5699 5696 5692 5688 5685 5684 5683 5682 5679 5676 5674 5670 5667 5662 5657 5651 5648 5646 5647 5641 5640 5637 5636 5639 5637 5634 5631